Satellite: NOAA-19
Catalog number: 33591
Epoch time:      10258.83739954
Element set:    0677
Inclination:      098.7935 deg
RA of node:       199.0531 deg
Eccentricity:    0.0014898
Arg of perigee:   035.3180 deg
Mean anomaly:     324.9002 deg
Mean motion:   14.11082894 rev/day
Decay rate:        6.5e-07 rev/day^2
Epoch rev:           08269
Checksum:              339

/EX
SB KEPS @ AMSAT  $ORB10259.M
Orbital Elements  10259.MISC

HR AMSAT ORBITAL ELEMENTS FOR MANNED AND MISCELLANEOUS SATELLITES
FROM WA5QGD FORT WORTH,TX September 16, 2010
Send Subscribe/unsubscribe to KEPS at
http://www.amsat.org/mailman/listinfo/keps
BID: ORB10259.M
TO ALL RADIO AMATEURS BT

Satellite: HUBBLE
Catalog number: 20580
Epoch time:      10259.53929104
Element set:     645
Inclination:      028.4708 deg
RA of node:       003.4610 deg
Eccentricity:    0.0003296
Arg of perigee:   094.9109 deg
Mean anomaly:     265.1874 deg
Mean motion:   15.01035155 rev/day
Decay rate:       4.50e-06 rev/day^2
Epoch rev:           91849
Checksum:              283

Satellite: ISS
Catalog number: 25544
Epoch time:      10260.02223999
Element set:     904
Inclination:      051.6448 deg
RA of node:       120.7352 deg
Eccentricity:    0.0006123
Arg of perigee:   002.1789 deg
Mean anomaly:     157.5240 deg
Mean motion:   15.71056674 rev/day
Decay rate:      8.255e-05 rev/day^2
Epoch rev:           67791
Checksum:              289

Satellite: CO-58
Catalog number: 28895
Epoch time:      10259.68526459
Element set:     682
Inclination:      097.9991 deg
RA of node:       141.0648 deg
Eccentricity:    0.0017780
Arg of perigee:   002.6024 deg
Mean anomaly:     357.5276 deg
Mean motion:   14.59932551 rev/day
Decay rate:       1.24e-06 rev/day^2
Epoch rev:           26033
Checksum:              338

Satellite: FALCON
Catalog number: 30776
Epoch time:      10259.90585996
Element set:     916
Inclination:      035.4333 deg
RA of node:       207.3925 deg
Eccentricity:    0.0001503
Arg of perigee:   278.8000 deg
Mean anomaly:     081.2555 deg
Mean motion:   15.03813330 rev/day
Decay rate:       8.14e-06 rev/day^2
Epoch rev:           19387
Checksum:              293

Satellite: MAST
Catalog number: 31126
Epoch time:      10259.56622271
Element set:     964
Inclination:      097.9285 deg
RA of node:       296.8151 deg
Eccentricity:    0.0093916
Arg of perigee:   302.5944 deg
Mean anomaly:     056.6262 deg
Mean motion:   14.53619532 rev/day
Decay rate:       1.62e-06 rev/day^2
Epoch rev:           18133
Checksum:              307

Satellite: CAPE1
Catalog number: 31130
Epoch time:      10258.67254007
Element set:    0985
Inclination:      097.9301 deg
RA of node:       293.2008 deg
Eccentricity:    0.0101794
Arg of perigee:   314.0671 deg
Mean anomaly:     045.2157 deg
Mean motion:   14.52220148 rev/day
Decay rate:       -2.6e-07 rev/day^2
Epoch rev:           18079
Checksum:              272

Satellite: COMPASS
Catalog number: 32787
Epoch time:      10258.30926576
Element set:    0779
Inclination:      097.8842 deg
RA of node:       321.7890 deg
Eccentricity:    0.0015922
Arg of perigee:   356.8077 deg
Mean anomaly:     003.3026 deg
Mean motion:   14.81962838 rev/day
Decay rate:       1.31e-06 rev/day^2
Epoch rev:           12884
Checksum:              328

Satellite: AAUSAT2
Catalog number: 32788
Epoch time:      10258.84358495
Element set:    0769
Inclination:      097.8854 deg
RA of node:       322.4647 deg
Eccentricity:    0.0015313
Arg of perigee:   356.6649 deg
Mean anomaly:     003.4397 deg
Mean motion:   14.82110673 rev/day
Decay rate:        8.8e-07 rev/day^2
Epoch rev:           12893
Checksum:              343

Satellite: DO-64
Catalog number: 32789
Epoch time:      10258.70733770
Element set:     786
Inclination:      097.8922 deg
RA of node:       322.9098 deg
Eccentricity:    0.0015369
Arg of perigee:   354.2908 deg
Mean anomaly:     005.8098 deg
Mean motion:   14.82301957 rev/day
Decay rate:       5.81e-06 rev/day^2
Epoch rev:           12891
Checksum:              350

Satellite: CO-66
Catalog number: 32791
Epoch time:      10259.69530258
Element set:     771
Inclination:      097.8857 deg
RA of node:       323.1575 deg
Eccentricity:    0.0016256
Arg of perigee:   350.3055 deg
Mean anomaly:     009.7839 deg
Mean motion:   14.81737217 rev/day
Decay rate:       6.05e-06 rev/day^2
Epoch rev:           12900
Checksum:              325

Satellite: RS-30
Catalog number: 32953
Epoch time:      10259.64559147
Element set:      50
Inclination:      082.5066 deg
RA of node:       332.8129 deg
Eccentricity:    0.0017509
Arg of perigee:   262.6074 deg
Mean anomaly:     097.3020 deg
Mean motion:   12.43007861 rev/day
Decay rate:        1.0e-07 rev/day^2
Epoch rev:           10510
Checksum:              264

Satellite: TACSAT-3
Catalog number: 35001
Epoch time:      10258.83331781
Element set:     383
Inclination:      040.4555 deg
RA of node:       029.2772 deg
Eccentricity:    0.0022722
Arg of perigee:   322.9498 deg
Mean anomaly:     036.9748 deg
Mean motion:   15.42659535 rev/day
Decay rate:      5.555e-05 rev/day^2
Epoch rev:            7463
Checksum:              311

